Time,TemperatureF,DewpointF,PressureIn,WindDirection,WindDirectionDegrees,WindSpeedMPH,WindSpeedGustMPH,Humidity,HourlyPrecipIn,Conditions,Clouds,dailyrainin,SoftwareType,DateUTC
2013-02-03 00:28:00,17.7,14.0,30.01,SSW,209,0.0,-999.0,86,-99.99,,,0.00,weatherlink.com 1.10,2013-02-03 05:28:00,
2013-02-03 00:43:00,17.7,14.0,30.00,SSW,209,1.0,-999.0,86,-99.99,,,0.00,weatherlink.com 1.10,2013-02-03 05:43:00,
2013-02-03 00:58:00,17.7,14.0,30.00,SSW,209,0.0,-999.0,86,-99.99,,,0.00,weatherlink.com 1.10,2013-02-03 05:58:00,
2013-02-03 01:13:00,17.6,14.0,29.99,SSW,209,0.0,-999.0,86,-99.99,,,0.00,weatherlink.com 1.10,2013-02-03 06:13:00,
2013-02-03 01:28:00,17.5,14.0,29.99,SSW,209,0.0,-999.0,86,-99.99,,,0.00,weatherlink.com 1.10,2013-02-03 06:28:00,
2013-02-03 01:43:00,17.4,14.0,29.99,SSW,209,0.0,-999.0,87,-99.99,,,0.00,weatherlink.com 1.10,2013-02-03 06:43:00,
2013-02-03 01:58:00,17.3,14.0,29.99,SSW,209,0.0,-999.0,87,-99.99,,,0.00,weatherlink.com 1.10,2013-02-03 06:58:00,
2013-02-03 02:13:00,17.2,14.0,29.98,SSW,209,0.0,-999.0,87,-99.99,,,0.00,weatherlink.com 1.10,2013-02-03 07:13:00,
2013-02-03 02:28:00,17.1,14.0,29.98,SSW,209,0.0,-999.0,87,-99.99,,,0.00,weatherlink.com 1.10,2013-02-03 07:28:00,
2013-02-03 02:44:00,16.9,14.0,29.97,SSW,209,0.0,-999.0,87,-99.99,,,0.00,weatherlink.com 1.10,2013-02-03 07:44:00,
2013-02-03 02:58:00,16.4,13.0,29.97,SSW,209,0.0,-999.0,86,-99.99,,,0.00,weatherlink.com 1.10,2013-02-03 07:58:00,
2013-02-03 03:14:00,15.8,12.0,29.96,SSW,209,0.0,-999.0,86,-99.99,,,0.00,weatherlink.com 1.10,2013-02-03 08:14:00,
2013-02-03 03:29:00,15.3,12.0,29.95,SSW,209,0.0,-999.0,86,-99.99,,,0.00,weatherlink.com 1.10,2013-02-03 08:29:00,
2013-02-03 03:44:00,14.6,11.0,29.95,SSW,209,0.0,-999.0,85,-99.99,,,0.00,weatherlink.com 1.10,2013-02-03 08:44:00,
2013-02-03 03:59:00,14.1,10.0,29.94,SSW,209,0.0,-999.0,85,-99.99,,,0.00,weatherlink.com 1.10,2013-02-03 08:59:00,
2013-02-03 04:14:00,13.7,10.0,29.94,SSW,209,0.0,-999.0,85,-99.99,,,0.00,weatherlink.com 1.10,2013-02-03 09:14:00,
2013-02-03 04:29:00,13.2,10.0,29.93,SSW,209,0.0,-999.0,85,-99.99,,,0.00,weatherlink.com 1.10,2013-02-03 09:29:00,
2013-02-03 04:44:00,12.6,9.0,29.93,SSW,209,0.0,-999.0,85,-99.99,,,0.00,weatherlink.com 1.10,2013-02-03 09:44:00,
2013-02-03 04:59:00,12.4,9.0,29.93,SSW,209,0.0,-999.0,85,-99.99,,,0.00,weatherlink.com 1.10,2013-02-03 09:59:00,
2013-02-03 05:14:00,12.1,9.0,29.93,SSW,209,0.0,-999.0,85,-99.99,,,0.00,weatherlink.com 1.10,2013-02-03 10:14:00,
2013-02-03 05:29:00,11.9,8.0,29.93,SSW,209,0.0,-999.0,85,-99.99,,,0.00,weatherlink.com 1.10,2013-02-03 10:29:00,
2013-02-03 05:44:00,11.6,8.0,29.92,SSW,209,0.0,-999.0,85,-99.99,,,0.00,weatherlink.com 1.10,2013-02-03 10:44:00,
2013-02-03 05:59:00,11.2,8.0,29.92,SSW,209,0.0,-999.0,86,-99.99,,,0.00,weatherlink.com 1.10,2013-02-03 10:59:00,
2013-02-03 06:14:00,11.4,8.0,29.92,SSW,209,0.0,-999.0,87,-99.99,,,0.00,weatherlink.com 1.10,2013-02-03 11:14:00,
2013-02-03 06:29:00,11.7,9.0,29.92,SSW,209,0.0,-999.0,88,-99.99,,,0.00,weatherlink.com 1.10,2013-02-03 11:29:00,
2013-02-03 06:44:00,11.6,9.0,29.92,SSW,209,0.0,-999.0,87,-99.99,,,0.00,weatherlink.com 1.10,2013-02-03 11:44:00,
2013-02-03 06:59:00,11.9,9.0,29.92,SSW,209,0.0,-999.0,88,-99.99,,,0.00,weatherlink.com 1.10,2013-02-03 11:59:00,
2013-02-03 07:14:00,12.1,9.0,29.92,SSW,209,0.0,-999.0,88,-99.99,,,0.00,weatherlink.com 1.10,2013-02-03 12:14:00,
2013-02-03 07:29:00,12.4,10.0,29.93,SSW,209,0.0,-999.0,88,-99.99,,,0.00,weatherlink.com 1.10,2013-02-03 12:29:00,
2013-02-03 07:44:00,12.8,10.0,29.93,SSW,209,0.0,-999.0,88,-99.99,,,0.00,weatherlink.com 1.10,2013-02-03 12:44:00,
2013-02-03 07:59:00,13.7,11.0,29.94,ESE,118,0.0,-999.0,89,-99.99,,,0.00,weatherlink.com 1.10,2013-02-03 12:59:00,
2013-02-03 08:14:00,15.0,13.0,29.94,East,101,3.0,-999.0,90,-99.99,,,0.00,weatherlink.com 1.10,2013-02-03 13:14:00,
2013-02-03 08:29:00,15.9,13.0,29.93,East,96,0.0,-999.0,89,-99.99,,,0.00,weatherlink.com 1.10,2013-02-03 13:29:00,
2013-02-03 08:44:00,16.8,14.0,29.93,ESE,103,0.0,-999.0,88,-99.99,,,0.00,weatherlink.com 1.10,2013-02-03 13:44:00,
2013-02-03 08:59:00,17.2,14.0,29.93,East,87,0.0,-999.0,85,-99.99,,,0.00,weatherlink.com 1.10,2013-02-03 13:59:00,
2013-02-03 09:14:00,17.5,14.0,29.92,East,98,0.0,-999.0,84,-99.99,,,0.00,weatherlink.com 1.10,2013-02-03 14:14:00,
2013-02-03 09:29:00,18.1,14.0,29.92,ENE,65,2.0,-999.0,82,-99.99,,,0.00,weatherlink.com 1.10,2013-02-03 14:29:00,
2013-02-03 09:44:00,18.6,13.0,29.92,ESE,109,2.0,-999.0,79,-99.99,,,0.00,weatherlink.com 1.10,2013-02-03 14:44:00,
2013-02-03 09:59:00,18.9,13.0,29.92,ENE,65,0.0,-999.0,79,-99.99,,,0.00,weatherlink.com 1.10,2013-02-03 14:59:00,
2013-02-03 10:14:00,19.9,14.0,29.91,NE,55,1.0,-999.0,79,-99.99,,,0.00,weatherlink.com 1.10,2013-02-03 15:14:00,
2013-02-03 10:29:00,21.5,15.0,29.91,South,173,2.0,-999.0,76,-99.99,,,0.00,weatherlink.com 1.10,2013-02-03 15:29:00,
2013-02-03 10:44:00,22.8,15.0,29.90,ENE,69,0.0,-999.0,73,-99.99,,,0.00,weatherlink.com 1.10,2013-02-03 15:44:00,
2013-02-03 10:59:00,23.3,15.0,29.89,SE,127,0.0,-999.0,70,-99.99,,,0.00,weatherlink.com 1.10,2013-02-03 15:59:00,
2013-02-03 11:14:00,23.6,15.0,29.89,East,80,0.0,-999.0,70,-99.99,,,0.00,weatherlink.com 1.10,2013-02-03 16:14:00,
2013-02-03 11:29:00,24.1,15.0,29.88,East,80,0.0,-999.0,69,-99.99,,,0.00,weatherlink.com 1.10,2013-02-03 16:29:00,
2013-02-03 11:44:00,24.7,15.0,29.86,SE,138,0.0,-999.0,68,-99.99,,,0.01,weatherlink.com 1.10,2013-02-03 16:44:00,
2013-02-03 11:59:00,25.8,15.0,29.85,South,185,0.0,-999.0,63,-99.99,,,0.01,weatherlink.com 1.10,2013-02-03 16:59:00,
2013-02-03 12:14:00,26.1,14.0,29.84,South,181,0.0,-999.0,60,-99.99,,,0.01,weatherlink.com 1.10,2013-02-03 17:14:00,
2013-02-03 12:30:00,26.5,15.0,29.83,SW,215,1.0,-999.0,63,-99.99,,,0.01,weatherlink.com 1.10,2013-02-03 17:30:00,
2013-02-03 12:45:00,26.2,14.0,29.82,SSE,163,1.0,-999.0,61,-99.99,,,0.02,weatherlink.com 1.10,2013-02-03 17:45:00,
2013-02-03 13:00:00,26.2,15.0,29.81,South,169,2.0,-999.0,63,-99.99,,,0.02,weatherlink.com 1.10,2013-02-03 18:00:00,
2013-02-03 13:15:00,25.9,14.0,29.80,WNW,291,0.0,-999.0,62,-99.99,,,0.02,weatherlink.com 1.10,2013-02-03 18:15:00,
2013-02-03 13:30:00,26.0,14.0,29.80,West,273,0.0,-999.0,62,-99.99,,,0.02,weatherlink.com 1.10,2013-02-03 18:30:00,
2013-02-03 13:45:00,25.8,14.0,29.79,WNW,289,1.0,-999.0,60,-99.99,,,0.02,weatherlink.com 1.10,2013-02-03 18:45:00,
2013-02-03 14:00:00,25.9,15.0,29.78,North,355,4.0,-999.0,63,-99.99,,,0.02,weatherlink.com 1.10,2013-02-03 19:00:00,
2013-02-03 14:15:00,26.1,15.0,29.77,NW,317,0.0,-999.0,62,-99.99,,,0.02,weatherlink.com 1.10,2013-02-03 19:15:00,
2013-02-03 14:30:00,26.6,15.0,29.77,NNW,327,0.0,-999.0,61,-99.99,,,0.02,weatherlink.com 1.10,2013-02-03 19:30:00,
2013-02-03 14:45:00,26.7,15.0,29.77,NW,311,2.0,-999.0,61,-99.99,,,0.02,weatherlink.com 1.10,2013-02-03 19:45:00,
2013-02-03 15:00:00,26.4,14.0,29.77,NNW,333,1.0,-999.0,61,-99.99,,,0.02,weatherlink.com 1.10,2013-02-03 20:00:00,
2013-02-03 15:15:00,26.5,15.0,29.77,NW,304,0.0,-999.0,61,-99.99,,,0.02,weatherlink.com 1.10,2013-02-03 20:15:00,
2013-02-03 15:30:00,26.3,15.0,29.77,NNW,331,6.0,-999.0,62,-99.99,,,0.02,weatherlink.com 1.10,2013-02-03 20:30:00,
2013-02-03 15:45:00,26.5,15.0,29.76,WNW,296,2.0,-999.0,62,-99.99,,,0.02,weatherlink.com 1.10,2013-02-03 20:45:00,
2013-02-03 16:00:00,26.2,14.0,29.76,SSW,209,0.0,-999.0,61,-99.99,,,0.02,weatherlink.com 1.10,2013-02-03 21:00:00,
2013-02-03 16:15:00,25.8,14.0,29.76,WSW,248,0.0,-999.0,61,-99.99,,,0.02,weatherlink.com 1.10,2013-02-03 21:15:00,
2013-02-03 16:30:00,25.7,14.0,29.76,SW,217,0.0,-999.0,61,-99.99,,,0.02,weatherlink.com 1.10,2013-02-03 21:30:00,
2013-02-03 16:45:00,25.6,14.0,29.76,West,277,3.0,-999.0,61,-99.99,,,0.02,weatherlink.com 1.10,2013-02-03 21:45:00,
2013-02-03 17:00:00,25.1,14.0,29.76,WNW,294,0.0,-999.0,62,-99.99,,,0.02,weatherlink.com 1.10,2013-02-03 22:00:00,
2013-02-03 17:15:00,24.7,13.0,29.76,WNW,290,1.0,-999.0,62,-99.99,,,0.02,weatherlink.com 1.10,2013-02-03 22:15:00,
2013-02-03 17:30:00,24.2,14.0,29.76,WNW,290,0.0,-999.0,64,-99.99,,,0.02,weatherlink.com 1.10,2013-02-03 22:30:00,
2013-02-03 17:45:00,23.8,14.0,29.76,WNW,290,0.0,-999.0,65,-99.99,,,0.02,weatherlink.com 1.10,2013-02-03 22:45:00,
2013-02-03 18:00:00,23.5,14.0,29.76,WNW,290,0.0,-999.0,68,-99.99,,,0.02,weatherlink.com 1.10,2013-02-03 23:00:00,
2013-02-03 18:15:00,23.0,14.0,29.76,WNW,290,0.0,-999.0,69,-99.99,,,0.02,weatherlink.com 1.10,2013-02-03 23:15:00,
2013-02-03 18:30:00,22.3,14.0,29.76,WNW,290,0.0,-999.0,71,-99.99,,,0.02,weatherlink.com 1.10,2013-02-03 23:30:00,
2013-02-03 18:45:00,21.6,14.0,29.75,WNW,290,0.0,-999.0,73,-99.99,,,0.02,weatherlink.com 1.10,2013-02-03 23:45:00,
2013-02-03 19:00:00,20.9,14.0,29.76,WNW,290,0.0,-999.0,75,-99.99,,,0.02,weatherlink.com 1.10,2013-02-04 00:00:00,
2013-02-03 19:15:00,20.1,13.0,29.76,WNW,290,0.0,-999.0,75,-99.99,,,0.02,weatherlink.com 1.10,2013-02-04 00:15:00,
2013-02-03 19:30:00,19.5,13.0,29.76,WNW,290,0.0,-999.0,77,-99.99,,,0.02,weatherlink.com 1.10,2013-02-04 00:30:00,
2013-02-03 19:45:00,18.9,13.0,29.77,WNW,290,0.0,-999.0,78,-99.99,,,0.02,weatherlink.com 1.10,2013-02-04 00:45:00,
2013-02-03 20:00:00,18.6,13.0,29.77,WNW,290,0.0,-999.0,79,-99.99,,,0.02,weatherlink.com 1.10,2013-02-04 01:00:00,
2013-02-03 20:15:00,18.5,13.0,29.77,WNW,290,0.0,-999.0,80,-99.99,,,0.02,weatherlink.com 1.10,2013-02-04 01:15:00,
2013-02-03 20:30:00,18.7,14.0,29.77,WNW,290,0.0,-999.0,81,-99.99,,,0.02,weatherlink.com 1.10,2013-02-04 01:30:00,
2013-02-03 20:45:00,18.6,14.0,29.77,WNW,290,0.0,-999.0,82,-99.99,,,0.02,weatherlink.com 1.10,2013-02-04 01:45:00,
2013-02-03 21:00:00,18.6,14.0,29.77,WNW,290,0.0,-999.0,82,-99.99,,,0.02,weatherlink.com 1.10,2013-02-04 02:00:00,
2013-02-03 21:15:00,18.5,14.0,29.77,WNW,290,0.0,-999.0,82,-99.99,,,0.02,weatherlink.com 1.10,2013-02-04 02:15:00,
2013-02-03 21:30:00,18.3,13.0,29.77,WNW,290,0.0,-999.0,81,-99.99,,,0.02,weatherlink.com 1.10,2013-02-04 02:30:00,
2013-02-03 21:45:00,18.0,13.0,29.77,WNW,290,0.0,-999.0,81,-99.99,,,0.02,weatherlink.com 1.10,2013-02-04 02:45:00,
2013-02-03 22:15:00,17.7,13.0,29.77,WNW,290,0.0,-999.0,81,-99.99,,,0.02,weatherlink.com 1.10,2013-02-04 03:15:00,
2013-02-03 22:30:00,17.2,12.0,29.76,WNW,290,0.0,-999.0,81,-99.99,,,0.02,weatherlink.com 1.10,2013-02-04 03:30:00,
2013-02-03 22:45:00,16.6,12.0,29.76,WNW,290,0.0,-999.0,81,-99.99,,,0.02,weatherlink.com 1.10,2013-02-04 03:45:00,
2013-02-03 23:00:00,16.1,12.0,29.76,WNW,290,0.0,-999.0,82,-99.99,,,0.02,weatherlink.com 1.10,2013-02-04 04:00:00,
2013-02-03 23:15:00,15.7,11.0,29.75,WNW,290,0.0,-999.0,82,-99.99,,,0.02,weatherlink.com 1.10,2013-02-04 04:15:00,
2013-02-03 23:49:00,15.8,12.0,29.76,WNW,290,0.0,-999.0,85,-99.99,,,0.02,weatherlink.com 1.10,2013-02-04 04:49:00,